This is the latest recevied weather packets stored in our database for station/object NI4CE-11. If no packets are shown the sender has not sent any weather packets the latest 10 day(s).
| Time | Temp. | Humidity | Pressure | Rain* | Wind** | Luminosity | Snow |
|---|---|---|---|---|---|---|---|
| 1778038205 | 23.33° C | 100% | 1017 hPa | 0 mm | - | - | - |
| 1778038185 | 23.89° C | 100% | 1016.9 hPa | 0 mm | - | - | - |
| 1778037885 | 23.33° C | 100% | 1017 hPa | 0 mm | - | - | - |
| 1778037751 | 24.44° C | 100% | 1017 hPa | 0 mm | - | - | - |
| 1778037585 | 24.44° C | 100% | 1016.9 hPa | 0 mm | - | - | - |
| 1778037285 | 24.44° C | 100% | 1017 hPa | 0 mm | - | - | - |
| 1778036985 | 23.33° C | 100% | 1016.9 hPa | 0 mm | - | - | - |
| 1778036821 | 24.44° C | 100% | 1016.8 hPa | 0 mm | - | - | - |
| 1778036685 | 24.44° C | 100% | 1016.8 hPa | 0 mm | - | - | - |
| 1778036385 | 24.44° C | 100% | 1016.9 hPa | 0 mm | - | - | - |
| 1778036085 | 24.44° C | 100% | 1016.9 hPa | 0 mm | - | - | - |
| 1778035840 | 25° C | 100% | 1016.9 hPa | 0 mm | - | - | - |
| 1778035785 | 23.89° C | 100% | 1016.8 hPa | 0 mm | - | - | - |
| 1778035486 | 25° C | 100% | 1016.9 hPa | 0 mm | - | - | - |
| 1778035281 | 24.44° C | 100% | 1016.7 hPa | 0 mm | - | - | - |
| 1778035186 | 24.44° C | 100% | 1016.7 hPa | 0 mm | - | - | - |
| 1778034886 | 23.89° C | 100% | 1016.6 hPa | 0 mm | - | - | - |
| 1778034625 | 24.44° C | 100% | 1016.6 hPa | 0 mm | - | - | - |
| 1778034586 | 23.89° C | 100% | 1016.6 hPa | 0 mm | - | - | - |
| 1778034286 | 25.56° C | 100% | 1016.6 hPa | 0 mm | - | - | - |
| 1778033986 | 24.44° C | 100% | 1016.6 hPa | 0 mm | - | - | - |
| 1778033747 | 25° C | 100% | 1016.3 hPa | 0 mm | - | - | - |
| 1778033686 | 24.44° C | 100% | 1016.5 hPa | 0 mm | - | - | - |
| 1778033386 | 25° C | 100% | 1016.3 hPa | 0 mm | - | - | - |
| 1778033366 | 25° C | 100% | 1016.3 hPa | 0 mm | - | - | - |
* Rain latest hour (hover to see other rain measurements)
** Current wind speed in m/s (hover to see current wind gust speed)